Location: ???
(60.6398°N, 46.9067°E)
Time: 19:09:59
(UTC+00:00)

H-2A R/B - Pass Details

Date: 08 December 2019
Orbit: 733 x 837 km, 98.2° (Epoch: 17 January)

Event Time Altitude Azimuth Distance (km) Brightness Sun altitude
Exits shadow 15:35:08 31° 6° (N) 1,308 3.1 -25.9°
Drops below altitude 10° 15:37:56 10° 348° (NNW) 2,289 4.6 -26.2°
Sets 15:40:15 0° 343° (NNW) 3,206 5.4 -26.5°
